AE7VB Weather Reports


time (UTC)temp
F
wind
direction
speed
knots
gust
knots
rain 1hr
in
rain 24hr
in
rain mn
in
humidity
%
barometer
mb
20260903144513 51 142 0.0 0.0 0.00 0.00 0.21 94 1017.6
20260903143048 51 81 0.0 0.0 0.00 0.00 0.18 94 1017.4
20260903141550 51 66 0.0 0.0 0.00 0.00 0.17 94 1017.3
20260903140037 51 76 0.0 0.0 0.00 0.00 0.16 94 1017.0
20260903134601 51 56 0.0 0.0 0.00 0.00 0.16 94 1017.0
20260903133109 51 57 0.0 0.0 0.00 0.00 0.16 94 1016.6
20260903133001 51 59 0.0 0.0 0.00 0.00 0.16 94 1016.6
20260903131531 51 78 0.0 0.0 0.00 0.00 0.16 93 1016.6
20260903130125 51 78 0.0 0.0 0.00 0.00 0.16 93 1016.5
20260903124531 51 67 0.0 0.0 0.00 0.00 0.16 93 1016.4
20260903123054 51 69 0.0 0.0 0.00 0.00 0.16 93 1016.2
20260903121556 51 75 0.0 0.0 0.00 0.00 0.16 93 1016.1
20260903120005 51 63 0.0 0.0 0.00 0.00 0.16 93 1016.0
20260903114509 51 58 0.0 0.0 0.00 0.00 0.16 92 1016.1
20260903113057 51 58 0.0 0.0 0.00 0.00 0.16 93 1016.1
20260903111532 51 61 0.0 0.0 0.00 0.00 0.16 92 1016.0
20260903110020 51 59 0.0 0.0 0.00 0.00 0.16 92 1015.9
20260903104533 51 28 0.0 0.0 0.00 0.00 0.15 92 1016.0
20260903103026 51 27 0.0 0.0 0.00 0.00 0.15 91 1016.0
20260903101553 51 27 0.0 0.0 0.00 0.00 0.13 91 1016.1
20260903100042 51 28 0.0 0.0 0.00 0.00 0.12 91 1015.8